Location: Kolin
(50.0330°N, 15.2000°E)
Time: 03:17:19
(UTC+01:00)

ISS - Pass Details

Date: 01 October 2020
Orbit: 417 x 420 km, 51.6° (Epoch: 25 October)

Event Time Altitude Azimuth Distance (km) Brightness Sun altitude
Rises 19:29:43 0° 285° (WNW) 2,369 2.2 -9.3°
Reaches altitude 10° 19:31:49 10° 286° (WNW) 1,504 0.6 -9.7°
Maximum altitude 19:35:12 86° 17° (NNE) 426 -3.8 -10.2°
Enters shadow 19:37:46 16° 104° (ESE) 1,173 -2.2 -10.6°
